Regional Weather Roundup
Issued by NWS

Home | Current Version | Previous Version | Graphics & Text | Print | Product List | Glossary On
Versions: 1 2 3 4 5 6 7 8 9 10 11 12 13 14 15 16 17 18 19 20 21 22 23 24 25 26 27 28 29 30 31 32 33 34 35 36 37 38 39 40 41 42 43 44 45 46 47 48 49 50
348
ASUS43 KBIS 111710
RWRND
NORTH DAKOTA REGIONAL WEATHER ROUNDUP
NATIONAL WEATHER SERVICE EASTERN NORTH DAKOTA/GRAND FORKS ND
1100 AM CST THU FEB 11 2016

  NOTE: "FAIR" INDICATES FEW OR NO CLOUDS BELOW 12,000 FEET WITH NO
  SIGNIFICANT WEATHER AND/OR OBSTRUCTIONS TO VISIBILITY.

NDZ001>003-009>011-017-111800-
...NORTHWEST NORTH DAKOTA...

CITY           SKY/WX    TMP DP  RH WIND       PRES   REMARKS
WILLISTON      LGT SNOW  23  19  85 NE5       30.13R VSB 1   WCI  17
MINOT          CLOUDY    17   8  67 N6        30.16R WCI   9
MINOT AFB      LGT SNOW  16  12  86 NE5       30.16R FOG     WCI   9
$$

NDZ018>021-031>035-040>046-111800-
...SOUTHWEST NORTH DAKOTA...

CITY           SKY/WX    TMP DP  RH WIND       PRES   REMARKS
BISMARCK       LGT SNOW  23  16  74 CALM      30.14R
DICKINSON      LGT SNOW  23  20  88 NE9       30.01R FOG     WCI  13
GARRISON         N/A     18  12  77 E6        30.13R WCI  10
HETTINGER      LGT SNOW  30  27  88 E7        30.00S VSB 3/4 WCI  23
$$

NDZ004>008-012>016-024-026-027-054-111800-
...NORTHEAST NORTH DAKOTA...

CITY           SKY/WX    TMP DP  RH WIND       PRES   REMARKS
GRAND FORKS    FLURRIES  10   3  73 SW7       30.26S WCI  -1
GRAND FORKS AF CLOUDY    10   2  71 SW8       30.24F WCI  -2
DEVILS LAKE    FLURRIES  11   6  81 CALM      30.19S
$$

NDZ022-023-025-028>030-036>039-047>053-111800-
...SOUTHEAST NORTH DAKOTA...

CITY           SKY/WX    TMP DP  RH WIND       PRES   REMARKS
JAMESTOWN      CLOUDY    10   7  87 S6        30.16S FOG     WCI   0
FARGO          CLOUDY    11   1  64 CALM      30.25F
WAHPETON       CLOUDY    10   5  79 SE6       30.26S WCI   1
$$




USA.gov is the U.S. government's official web portal to all federal, state and local government web resources and services.